Keps
Threads by month
- ----- 2025 -----
- February
- January
- ----- 2024 -----
- December
- November
- October
- September
- August
- July
- June
- May
- April
- March
- February
- January
- ----- 2023 -----
- December
- November
- October
- September
- August
- July
- June
- May
- April
- March
- February
- January
- ----- 2022 -----
- December
- November
- October
- September
- August
- July
- June
- May
- April
- March
- February
- January
- ----- 2021 -----
- December
- November
- October
- September
- August
- July
- June
- May
- April
- March
- February
- January
- ----- 2020 -----
- December
- November
- October
- September
- August
- July
- June
- May
- April
- March
- February
- January
- ----- 2019 -----
- December
- November
- October
- September
- August
- July
- June
- May
- April
- March
- February
- January
- ----- 2018 -----
- December
- November
- October
- September
- August
- July
- June
- May
- April
- March
- February
- January
- ----- 2017 -----
- December
- November
- October
- September
- August
- July
- June
- May
- April
- March
- February
- January
- ----- 2016 -----
- December
- November
- October
- September
- August
- July
- June
- May
- April
- March
- February
- January
- ----- 2015 -----
- December
- November
- October
- September
- August
- July
- June
- May
- April
- March
- February
- January
- ----- 2014 -----
- December
- November
- October
- September
- August
- July
- June
- May
- April
- March
- February
- January
- ----- 2013 -----
- December
- November
- October
- September
- August
- July
- June
- May
- April
- March
- February
- January
- ----- 2012 -----
- December
- November
- October
- September
- August
- July
- June
- May
- April
- March
- February
- January
- ----- 2011 -----
- December
- November
- October
- September
- August
- July
- June
- May
- April
- March
- February
- January
- ----- 2010 -----
- December
- November
- October
- September
- August
- July
- June
- May
- April
- March
- February
- January
- ----- 2009 -----
- December
- November
- October
- September
- August
- July
- June
- May
- April
- March
- February
- January
- ----- 2008 -----
- December
- November
- October
- September
- August
- July
- June
- May
- April
- March
- February
- January
- ----- 2007 -----
- December
- November
- October
- September
- August
- July
- June
- May
- April
- March
- February
- January
- ----- 2006 -----
- December
- November
- October
- September
September 2012
- 1 participants
- 12 discussions
What I thought was a good identification of the satellites launched on
9/17/2012 ELaNa launch was incorrect. The identification of the objects in
the cluster of satellites is still unsure.
Therefore, I must start over naming the satellites by Object C, Object D,
and so on. Yes, very disappointing. This can be a long process particularly
if the cluster takes a long time to disperse.
The objects that I have included in the KEPs this week are as follows:
Object D - Cat # 38761
Object E - Cat # 38762
Object F - Cat # 38763
Object G - Cat # 38764
Object H - Cat # 38765
Object J - Cat # 38766
I depend on you all to help identify the actual names of these satellites. I
can add or subtract from this list as necessary. Please listen to the
downlink frequencies of these satellites and by observing the AOS and LOS
times, determine which object is which.
You can go to http://amsat.org/pipermail/ans/2012/000651.html to find the
downlink frequencies for each satellite. Click on the previous ANS until
you see ANS 260. The first article in ANS 260 has the frequencies to listen
on.
Thanks for your help and I will give credit as credit is due.
1
0
SB KEPS @ AMSAT $ORB12271.N
2Line Orbital Elements 12271.AMSAT
HR AMSAT ORBITAL ELEMENTS FOR AMATEUR SATELLITES IN NASA FORMAT
FROM WA5QGD FORT WORTH,TX September 27, 2012
Send SUBSCRIBE KEPS/UNSUBSCRIBE KEPS to majordomo(a)amsat.org only
BID: ORB12271.N
DECODE 2-LINE ELSETS WITH THE FOLLOWING KEY:
1 AAAAAU 00 0 0 BBBBB.BBBBBBBB .CCCCCCCC 00000-0 00000-0 0 DDDZ
2 AAAAA EEE.EEEE FFF.FFFF GGGGGGG HHH.HHHH III.IIII JJ.JJJJJJJJKKKKKZ
KEY: A-CATALOGNUM B-EPOCHTIME C-DECAY D-ELSETNUM E-INCLINATION F-RAAN
G-ECCENTRICITY H-ARGPERIGEE I-MNANOM J-MNMOTION K-ORBITNUM Z-CHECKSUM
TO ALL RADIO AMATEURS BT
AO-07
1 07530U 74089B 12270.57813027 -.00000027 00000-0 10000-3 0 4908
2 07530 101.4110 263.9027 0012152 083.4508 276.7938 12.53591475732751
FO-29
1 24278U 96046B 12271.82839406 -.00000053 00000-0 -19972-4 0 9421
2 24278 098.5869 359.0652 0351055 123.5602 239.9579 13.52989509795835
SO-33
1 25509U 98061B 12271.62917418 .00000587 00000-0 10606-3 0 3301
2 25509 031.4328 113.9266 0351940 019.6898 341.6941 14.28820172727318
RS-22
1 27939U 03042A 12271.58008736 .00000665 00000-0 13491-3 0 7625
2 27939 097.8037 107.1195 0012736 305.0472 054.9530 14.64141089480860
VO-52
1 28650U 05017B 12270.66254412 .00001676 00000-0 21003-3 0 02190
2 28650 097.5907 296.6291 0027561 068.2413 292.1719 14.83198654400015
HO-68
1 36122U 09072B 12271.74934125 -.00000044 00000-0 00000 0 0 8661
2 36122 100.3496 328.9750 0007161 234.5581 125.4862 13.16298241133884
UO-11
1 14781U 84021B 12270.76903177 .00000581 00000-0 82550-4 0 9862
2 14781 097.9436 329.3434 0010133 064.6835 295.5428 14.80569473534968
AO-16
1 20439U 90005D 12270.88658667 .00000178 00000-0 82130-4 0 5673
2 20439 098.4378 211.4521 0010065 216.0048 144.0454 14.32087048184550
LO-19
1 20442U 90005G 12270.89422491 .00000184 00000-0 83787-4 0 04992
2 20442 098.4053 214.1148 0011346 206.3191 153.7410 14.32303320184747
AO-27
1 22825U 93061C 12270.87959382 .00000212 00000-0 99978-4 0 02164
2 22825 098.5823 212.1494 0008427 347.2940 012.8025 14.29489027991002
IO-26
1 22826U 93061D 12270.86092664 .00000159 00000-0 78988-4 0 09733
2 22826 098.5771 212.4764 0008910 341.2498 018.8354 14.29764904991132
GO-32
1 25397U 98043D 12271.47328218 .00000143 00000-0 81502-4 0 8849
2 25397 098.3749 245.2111 0001534 023.1954 336.9292 14.23294660738572
NO-44
1 26931U 01043C 12271.86728342 .00000207 00000-0 11260-3 0 1468
2 26931 067.0507 215.6909 0006254 253.0397 107.0038 14.29834216573921
SO-50
1 27607U 02058C 12271.65718795 .00001259 00000-0 21024-3 0 8750
2 27607 064.5594 343.1582 0076340 228.0847 131.3743 14.72532902525058
CO-55
1 27844U 03031E 12270.59389723 .00000180 00000-0 10327-3 0 4710
2 27844 098.7047 277.5087 0009111 294.5336 065.4886 14.21075985479292
CO-57
1 27848U 03031J 12270.54507408 .00000164 00000-0 96142-4 0 04229
2 27848 098.7130 276.8403 0009270 301.5819 058.4452 14.20821017479222
AO-51
1 28375U 04025K 12270.46001113 .00000158 00000-0 59661-4 0 03757
2 28375 098.1597 231.0924 0084407 093.7913 267.2931 14.40989688433357
CP3
1 31129U 07012N 12270.57764837 .00000679 00000-0 16346-3 0 02746
2 31129 097.8861 272.4088 0100961 167.0251 193.3583 14.53215906288700
CO-65
1 32785U 08021C 12271.66054795 .00001545 00000-0 19521-3 0 4262
2 32785 097.7878 330.2379 0015856 086.4479 273.8564 14.83212796238958
PRISM
1 33493U 09002B 12271.74016698 .00003167 00000-0 38269-3 0 1100
2 33493 098.1849 054.8659 0018154 327.6854 032.3259 14.84379085198960
SOHLA-1
1 33496U 09002E 12271.88657654 .00000729 00000-0 12972-3 0 8449
2 33496 098.1127 022.9948 0007671 075.9667 284.2391 14.70053520197339
SO-67
1 35870U 09049F 12271.79168872 .00005143 00000-0 21131-3 0 3668
2 35870 097.2237 303.9288 0002816 132.1205 316.1836 15.24606923168246
TISAT-1
1 36799U 10035E 12271.75686719 .00002082 00000-0 26712-3 0 3846
2 36799 098.0553 348.8213 0014359 195.6663 164.4137 14.82279968119680
STUDSAT
1 36801U 10035G 12271.84549190 .00006012 00000-0 70620-3 0 4824
2 36801 098.0621 350.1249 0012745 180.5324 179.5882 14.85228821119756
FO-69
1 37227U 0 12271.50309918 .00001763 00000-0 25605-3 0 02990
2 37227 071.9752 086.1689 0017721 139.0233 221.2222 14.77188357051203
FO-70
1 37380U 0 12271.05182549 .00000610 00000-0 94361-4 0 02984
2 37380 071.9710 087.8490 0016476 131.8420 228.4153 14.76928503051025
ALMASAT-1
1 38078U 12006B 12271.56913916 .00035440 00000-0 98388-3 0 6002
2 38078 069.4789 084.8076 0741426 120.3450 247.3245 14.12820104 31995
XATCOBEO
1 38082U 12006F 12271.82395964 .00088585 00000-0 21316-2 0 5792
2 38082 069.4856 079.0447 0697883 117.2218 250.2007 14.24927290 32163
NOAA-10
1 16969U 86073A 12270.71938513 -.00000017 00000-0 10672-4 0 00804
2 16969 098.5751 297.9346 0011597 300.4847 059.5177 14.27578098354352
NOAA-11
1 19531U 88089A 12270.75817345 -.00000114 00000-0 -36727-4 0 00734
2 19531 098.7281 353.7610 0010651 297.7286 062.2797 14.14981532238874
NOAA-12
1 21263U 91032A 12270.96328852 .00000026 00000-0 29920-4 0 05657
2 21263 098.7244 292.1281 0012995 267.1247 092.8445 14.25519127111057
MET-3/5
1 21655U 91056A 12270.49021303 .00000085 00000-0 18881-3 0 00010
2 21655 082.5529 080.6154 0014330 072.1173 288.1511 13.17041117014982
MET-2/21
1 22782U 93055A 12270.68146769 -.00000051 00000-0 -59119-4 0 5377
2 22782 082.5488 311.9896 0021210 225.7391 134.2042 13.83687901963202
OKEAN-4
1 23317U 94066A 12270.85476100 .00001107 00000-0 12973-3 0 00337
2 23317 082.5385 296.1472 0022420 020.7775 339.4347 14.83960965969882
NOAA-14
1 23455U 94089A 12270.88039328 .00000014 00000-0 30640-4 0 00490
2 23455 098.8239 353.0776 0010211 029.8943 330.2810 14.13871655915161
NOAA-15
1 25338U 98030A 12270.58063395 .00000190 00000-0 99613-4 0 04191
2 25338 098.7008 256.5857 0010629 169.1917 190.9494 14.25121789747290
RESURS
1 25394U 98043A 12270.98386295 .00000050 00000-0 39179-4 0 01977
2 25394 098.3299 253.9130 0001262 350.5144 009.6012 14.24297418738896
FENGYUN1
1 25730U 99025A 12271.91835852 .00000614 00000-0 37370-3 0 7044
2 25730 098.8521 229.1587 0020664 065.1012 295.2302 14.09754668689083
OKEAN-0
1 25860U 99039A 12270.93241284 .00000575 00000-0 94397-4 0 07616
2 25860 097.9494 231.5686 0000734 035.4758 324.6500 14.74309213709563
NOAA-16
1 26536U 00055A 12270.73810919 .00000255 00000-0 16203-3 0 09089
2 26536 099.0844 314.3784 0010842 154.9028 205.2656 14.12784969619375
